Terminal Aerodrome Forecast
Issued by NWS

Home | Current Version | Previous Version | Text Only | Print | Product List | Glossary On
Versions: 1 2 3 4 5 6 7 8 9 10 11 12 13 14 15 16
000
FTUS42 KTAE 041120
TAFVLD
TAF
KVLD 041120Z 0412/0512 00000KT P6SM SCT250
      TEMPO 0412/0413 1SM BR BKN002
     FM041800 23005KT P6SM VCTS BKN050CB
      TEMPO 0420/0424 VRB15G25KT 2SM TSRA SCT010 BKN030CB
     FM050300 00000KT P6SM BKN250=

USA.gov is the U.S. government's official web portal to all federal, state and local government web resources and services.